Tabla de datos: Horarios

Fecha Temp Humedad Lluvia
21/10/2021 06:00 a.m. 21,73 99,10 0,00
21/10/2021 05:00 a.m. 22,02 99,10 0,00
21/10/2021 04:00 a.m. 22,32 98,70 0,00
21/10/2021 03:00 a.m. 22,69 99,10 0,00
21/10/2021 02:00 a.m. 22,91 99,00 0,00
21/10/2021 01:00 a.m. 23,09 99,00 0,00
21/10/2021 12:00 a.m. 23,12 98,90 0,00
20/10/2021 11:00 p.m. 23,10 98,80 0,00
20/10/2021 10:00 p.m. 23,26 98,40 0,00
20/10/2021 09:00 p.m. 23,69 97,70 0,00
20/10/2021 08:00 p.m. 24,14 97,90 0,00
20/10/2021 07:00 p.m. 24,46 96,50 0,00
20/10/2021 06:00 p.m. 25,45 92,90 0,00
20/10/2021 05:00 p.m. 26,96 86,80 0,00
20/10/2021 04:00 p.m. 27,81 82,10 0,00
20/10/2021 03:00 p.m. 27,84 82,60 0,00
20/10/2021 02:00 p.m. 28,36 79,80 0,00
20/10/2021 01:00 p.m. 29,14 77,17 0,00
20/10/2021 12:00 p.m. 29,70 72,46 0,00
20/10/2021 11:00 a.m. 29,71 72,10 0,00
20/10/2021 10:00 a.m. 29,35 72,25 0,00
20/10/2021 09:00 a.m. 27,80 77,27 0,00
20/10/2021 08:00 a.m. 24,59 87,80 0,00
20/10/2021 07:00 a.m. 23,34 92,00 0,00
20/10/2021 06:00 a.m. 22,40 95,40 0,00

Tabla de datos: Actuales

Fecha Vmax SUM_lluv LLUV_ayer Tmax Tmin
21/10/2021 06:49:42 a.m. 5,2 0,00 0,00 23,24 21,55

Fecha Temp Td HR Velocidad Direccion
21/10/2021 22,82 22,57 98,90 1,10 270,20